This is the latest recevied weather packets stored in our database for station/object N3TJJ-2. If no packets are shown the sender has not sent any weather packets the latest 10 day(s).
| Time | Temp. | Humidity | Pressure | Rain* | Wind** | Luminosity | Snow |
|---|---|---|---|---|---|---|---|
| 1787860589 | 29.44° C | 74% | 1014.8 hPa | 0 mm | - | - | - |
| 1787859771 | 28.89° C | 74% | 1014.8 hPa | 0 mm | - | - | - |
| 1787859473 | 29.44° C | 74% | 1014.9 hPa | 0 mm | - | - | - |
| 1787859076 | 29.44° C | 74% | 1014.9 hPa | 0 mm | - | - | - |
| 1787858682 | 29.44° C | 73% | 1015.1 hPa | 0 mm | - | - | - |
| 1787858358 | 29.44° C | 74% | 1015.3 hPa | 0 mm | - | - | - |
| 1787857972 | 29.44° C | 74% | 1015.4 hPa | 0 mm | - | - | - |
| 1787857601 | 29.44° C | 75% | 1015.4 hPa | 0 mm | - | - | - |
| 1787857241 | 28.89° C | 75% | 1015.5 hPa | 0 mm | - | - | - |
| 1787856888 | 28.33° C | 75% | 1015.6 hPa | 0 mm | - | - | - |
| 1787856531 | 28.89° C | 74% | 1015.5 hPa | 0 mm | - | - | - |
| 1787856206 | 28.89° C | 74% | 1015.5 hPa | 0 mm | - | - | - |
| 1787855801 | 28.89° C | 74% | 1015.5 hPa | 0 mm | - | - | - |
| 1787855446 | 28.89° C | 73% | 1015.6 hPa | 0 mm | - | - | - |
| 1787855094 | 28.89° C | 75% | 1015.6 hPa | 0 mm | - | - | - |
| 1787854992 | 28.89° C | 74% | 1015.5 hPa | 0 mm | - | - | - |
| 1787854985 | 28.89° C | 74% | 1015.5 hPa | 0 mm | - | - | - |
| 1787854405 | 28.89° C | 74% | 1015.5 hPa | 0 mm | - | - | - |
| 1787854089 | 28.33° C | 75% | 1015.5 hPa | 0 mm | - | - | - |
| 1787853641 | 28.33° C | 74% | 1015.6 hPa | 0 mm | - | - | - |
| 1787853288 | 27.78° C | 76% | 1015.7 hPa | 0 mm | - | - | - |
| 1787852935 | 27.78° C | 75% | 1015.7 hPa | 0 mm | - | - | - |
| 1787852562 | 27.22° C | 76% | 1015.7 hPa | 0 mm | - | - | - |
| 1787852203 | 27.78° C | 75% | 1015.8 hPa | 0 mm | - | - | - |
| 1787851841 | 27.78° C | 75% | 1015.8 hPa | 0 mm | - | - | - |
* Rain latest hour (hover to see other rain measurements)
** Current wind speed in m/s (hover to see current wind gust speed)